Regional Weather Roundup
Issued by NWS

Home | Current Version | Previous Version | Text Only | Print | Product List | Glossary Off
Versions: 1 2 3 4 5 6 7 8 9 10 11 12 13 14 15 16 17 18 19 20 21 22 23 24 25 26 27 28 29 30 31 32 33 34 35 36 37 38 39 40 41 42 43 44 45 46 47 48 49 50

000
ASUS43 KLOT 230409
RWRIL

ILLINOIS REGIONAL WEATHER ROUNDUP
NATIONAL WEATHER SERVICE CHICAGO/ROMEOVILLE IL
1100 PM CDT FRI JUL 22 2016

NOTE: "FAIR" INDICATES FEW OR NO CLOUDS BELOW 12,000 FEET WITH NO
SIGNIFICANT WEATHER AND/OR OBSTRUCTIONS TO VISIBILITY.

* THESE STATIONS ARE NOT UNDER NWS QUALITY CONTROL. THEY ALSO MAY NOT
  REPORT WEATHER SUCH AS PRECIPITATION OR FOG.

ILZ001-002-007-009-015-016-024-230500-
NORTHWEST ILLINOIS

CITY           SKY/WX    TMP DP  RH WIND       PRES   REMARKS
MOLINE         CLEAR     80  76  87 S3        29.97S HX  86
STERLING*      PTCLDY    77  76  96 E3        30.00R
SAVANNA*       MOCLDY    78  76  93 CALM      29.98S HX  80
$$

ILZ003-004-008-010-011-017-018-230500-
NORTH CENTRAL ILLINOIS

CITY           SKY/WX    TMP DP  RH WIND       PRES   REMARKS
ROCKFORD       CLEAR     80  76  87 S3        30.00S HX  86
FREEPORT*      CLEAR     74  73  96 CALM      30.02S
ROCHELLE*      CLEAR     75  74  98 CALM      30.01S
DE KALB*       CLOUDY    81  76  84 SW3       30.01F HX  86
$$

ILZ005-006-012>014-019>023-230500-
NORTHEAST ILLINOIS

CITY           SKY/WX    TMP DP  RH WIND       PRES   REMARKS
CHICAGO-OHARE  MOCLDY    84  76  76 W5        29.98S HX  93
CHICAGO-MIDWAY MOCLDY    84  75  74 SW7       29.98R HX  92
AURORA         CLEAR     80  76  87 CALM      30.00S HX  86
LANSING*       CLEAR     78  74  87 SW5       30.00R
JOLIET*        PTCLDY    81  77  88 CALM      30.00R HX  88
WAUKEGAN       CLEAR     75  72  90 CALM      29.98S
DUPAGE AIRPORT CLEAR     79  74  84 W6        29.99S HX  82
WHEELING       CLEAR     82  72  71 CALM      29.99S HX  87
MORRIS*        CLEAR     78  75  91 W5        29.99S HX  80
ROMEOVILLE*    PTCLDY    78  73  86 W5        30.00S HX  80
NORTHERLY ISL    N/A     81  70  69 S2          N/A  HX  84
$$

LMZ740>746-230500-
SOUTHERN LAKE MICHIGAN

STATION/POSITION SKY/WX   TEMP    WIND        PRES    VSBY  WAVE
                          AIR SEA DIR/SP/G                  HT/PER
                          (F)     (DEG/KT/KT) (MB)    (MI)  (FT/S)
SOUTHERN BUOY              74 73  200/  4/  4 1014.4S         0
WILMETTE HARBOR            78 74  220/  4/  4   N/A           0
HARRISON CRIB              81     170/  8/  8   N/A
BURNHAM HARBOR             81     150/  3/  5   N/A
CALUMET HARBOR             81                   N/A
BURNS HARBOR               82     200/  5/  6 1015.9R
MICHIGAN CITY              81     160/  4/  4   N/A
MICHIGAN CITY 6N           78 78  170/  4/  6   N/A           0
ST. JOSEPH                 75 75  160/  2/  4 1015.0S         0
$$

ILZ025>027-034>036-040-047-049-050-058-095>099-230500-
WEST-CENTRAL ILLINOIS

CITY           SKY/WX    TMP DP  RH WIND       PRES   REMARKS
QUINCY         CLOUDY    80  76  87 S7        30.01S HX  86
GALESBURG*     CLEAR     77  75  94 S7        30.00S
MACOMB*        CLOUDY    77  75  95 S5        30.03S
JACKSONVILLE*  PTCLDY    78  75  90 S3        30.01F HX  81
PITTSFIELD*    MOCLDY    78  77  96 CALM      30.03F HX  81
$$

ILZ028>032-037-038-041>044-048-051>054-059>061-230500-
CENTRAL ILLINOIS

CITY           SKY/WX    TMP DP  RH WIND       PRES   REMARKS
PONTIAC        CLEAR     77  77 100 CALM      30.02S FOG
BLOOMINGTON    CLEAR     77  73  87 SW6       30.04S
DECATUR        MOCLDY    79  74  84 S3        30.03S HX  82
PEORIA         PTCLDY    80  77  90 S8        30.00F HX  87
LACON*         CLOUDY    78  76  91 CALM      29.99F HX  82
LINCOLN*       CLOUDY    80  76  87 CALM      30.02F HX  84
SPRINGFIELD    LGT RAIN  78  75  90 CALM      30.02F HX  81
TAYLORVILLE    CLOUDY    76  74  94 CALM      30.03F
$$

ILZ033-039-045-046-055>057-062-063-230500-
EAST-CENTRAL ILLINOIS

CITY           SKY/WX    TMP DP  RH WIND       PRES   REMARKS
CHAMPAIGN      PTCLDY    75  72  90 SW3       30.04R
MATTOON        PTCLDY    76  72  87 SW3       30.03S
PARIS*         CLEAR     72  72 100 CALM      30.04S
$$

ILZ079-100>102-230500-
SOUTHWEST ILLINOIS

CITY           SKY/WX    TMP DP  RH WIND       PRES   REMARKS
ALTON          MOCLDY    74  73  96 CALM      30.03F
BELLEVILLE     CLOUDY    76  76 100 CALM      30.01F
CAHOKIA*       MOCLDY    78  74  87 S3        30.02F HX  81
SPARTA*        MOCLDY    76  74  96 CALM      30.04S
$$

ILZ064>066-069>071-074>076-080>082-084>086-088>090-092>094-230500-
SOUTH-CENTRAL ILLINOIS

CITY           SKY/WX    TMP DP  RH WIND       PRES   REMARKS
CARBONDALE     PTCLDY    75  73  93 W3        30.02F
CAIRO*         MOCLDY    78  77  98 CALM      30.01F HX  80
EFFINGHAM*     CLOUDY    74  74 100 CALM      30.04F
MARION         CLOUDY    75  75 100 CALM      30.02F
MT. VERNON     PTCLDY    73  70  88 CALM      30.03F
CENTRALIA*     PTCLDY    76  75  99 CALM      30.02F
SALEM*         CLOUDY    75  73  93 CALM      30.03F
METROPOLIS*    CLOUDY    78  77  96 CALM      30.02F FOG     HX  80
$$

ILZ067-068-072-073-078-083-087-091-230500-
SOUTHEAST ILLINOIS

CITY           SKY/WX    TMP DP  RH WIND       PRES   REMARKS
LAWRENCEVILLE  CLEAR     76  75  97 CALM      30.02F
FLORA*         CLEAR     76  75  97 CALM      30.02F
FAIRFIELD*     CLEAR     75  75  99 CALM      30.01F
HARRISBURG*    CLEAR     78  78  99 CALM      30.02F FOG     HX  80
ROBINSON*      CLEAR     73  73 100 CALM      30.04S FOG
CARMI*         CLEAR     76  76 100 CALM      30.01F FOG
$$

ABBREVIATIONS USED IN REMARKS
   TC - TEMPERATURE IN CELSIUS
  WCI - WIND CHILL INDEX
   HX - HEAT INDEX
  VSB - VISIBILITY
$$





USA.gov is the U.S. government's official web portal to all federal, state and local government web resources and services.